Dewpoint
61 61 60 60 60 59 58 59 58 58 58 59 59 59 58 58 58 58 58 57 57 58 58 57 57 57 45 26 22 25 53 45 35 32 31 29 24 25 24 26 24 29 24 25 27 30 28
61 60 60 59 59 60 59 59 60 59 59 59 58 58 58 58 58 58 58 58 57 58 58 57 57 56 35 27 25 28 28 31 32 30 29 30 26 26 23 23 24 28 26 25 27 29 30
60 59 59 59 59 59 59 60 60 60 59 59 58 58 58 58 58 58 58 58 58 58 57 57 57 42 29 27 26 28 29 30 32 32 28 30 31 28 26 25 26 22 19 21 22 27 29
59 58 58 58 58 58 59 60 60 60 59 59 58 58 57 58 58 57 57 58 58 57 56 56 56 31 25 30 27 28 28 30 31 30 29 28 30 28 27 25 26 21 20 17 21 29 29
58 57 57 57 58 58 58 60 59 59 59 58 58 58 58 57 58 58 57 57 57 57 56 56 34 29 25 38 28 29 27 28 29 31 32 26 31 28 28 23 18 19 17 20 18 27 27
57 56 56 56 57 57 57 59 59 59 59 58 58 58 58 57 57 57 57 57 54 50 44 34 26 22 26 25 29 30 29 30 28 30 34 30 30 26 25 20 15 16 18 17 17 21 26
56 56 55 55 56 56 58 58 59 59 59 58 58 57 57 57 57 56 47 36 32 32 33 25 26 25 30 31 32 32 30 29 30 29 26 29 24 20 21 22 18 17 20 16 18 21 21
55 55 54 55 55 56 58 58 58 58 58 58 57 57 57 57 57 53 42 35 38 41 26 32 32 29 28 30 29 32 30 26 27 24 27 26 24 23 25 23 20 20 22 18 20 23 24
54 54 54 54 54 57 57 57 57 57 57 57 57 56 57 57 55 45 41 42 44 45 28 28 31 30 30 30 28 30 28 26 24 23 26 23 23 24 21 20 19 19 19 20 19 23 23
55 53 54 54 55 57 55 55 55 56 55 56 56 56 56 56 43 44 39 44 45 44 26 25 30 31 31 32 28 32 29 27 26 23 25 25 25 22 21 20 20 19 21 22 22 22 18
54 53 53 54 56 55 54 55 55 55 55 55 56 56 56 54 40 35 40 46 46 38 20 27 32 35 34 30 31 32 30 27 23 25 24 24 23 22 22 22 21 21 24 22 22 21 22
52 52 54 56 55 54 54 54 54 54 54 54 55 55 55 47 45 45 47 47 44 27 19 27 33 31 32 33 32 33 30 29 29 26 26 25 27 24 24 24 23 23 25 27 28 25 22
52 53 56 55 54 53 53 53 53 54 54 54 55 55 53 48 41 46 49 43 30 26 26 27 28 32 30 29 30 31 29 27 26 24 25 27 27 25 23 22 23 24 24 23 22 22 22
56 56 54 54 53 52 53 52 52 53 54 53 54 54 51 49 48 48 46 33 25 22 26 32 30 30 28 30 29 30 29 27 28 27 25 23 24 26 25 24 24 23 24 24 19 19 18
55 54 53 52 52 51 51 51 51 52 51 52 53 49 47 51 49 47 38 29 22 24 29 30 29 30 29 30 30 29 28 26 26 27 24 24 24 26 23 23 25 25 23 26 23 21 21
51 51 51 50 49 49 49 49 49 50 50 52 48 47 44 50 49 42 34 32 29 32 31 29 27 28 26 29 27 27 26 27 27 29 30 27 23 25 22 22 23 26 25 23 24 20 20
49 49 48 48 47 47 47 48 48 48 49 53 46 42 42 49 45 37 31 31 32 35 32 30 28 28 27 27 28 26 27 28 28 28 29 27 26 25 22 21 23 22 23 24 25 27 23
47 47 47 46 46 46 46 46 46 47 48 50 46 39 44 46 39 34 31 30 36 33 30 30 31 29 28 29 28 27 27 27 29 28 26 27 26 24 24 27 27 24 22 23 23 22 29
46 46 45 45 44 44 44 44 45 45 45 44 44 44 47 44 36 34 33 34 36 34 31 30 29 30 30 29 27 28 28 31 29 27 26 27 25 24 24 26 29 25 25 24 30 31 26
42 43 43 44 43 43 43 43 43 44 44 45 46 40 41 43 39 32 34 36 35 38 35 32 31 31 31 29 30 28 30 32 29 28 37 33 27 26 25 24 28 26 27 25 27 29 29
42 42 42 41 41 40 40 40 41 42 45 47 46 41 41 36 36 36 37 38 37 37 38 37 34 31 30 29 30 29 31 31 33 35 32 29 29 29 30 30 30 30 29 30 27 29 31
41 41 42 42 42 42 41 41 41 42 43 44 40 40 38 39 40 39 38 37 37 38 39 38 37 38 38 37 37 37 36 35 33 32 30 31 32 32 31 32 29 28 31 32 32 31 31
41 41 40 40 40 40 40 40 40 40 41 35 37 37 38 32 35 36 34 34 35 34 36 36 36 36 36 39 40 41 41 39 37 37 33 35 34 33 30 33 33 31 33 33 33 33 32
39 39 39 38 39 39 39 40 40 39 40 37 36 36 31 25 29 29 28 23 21 24 25 28 32 31 35 39 39 40 40 41 40 39 38 36 35 33 31 33 24 28 24 28 31 29 26
38 38 37 37 38 39 39 39 39 40 39 38 37 37 32 24 27 25 25 25 23 25 25 27 29 30 36 37 35 35 35 37 38 38 37 37 36 33 29 28 27 27 23 24 24 21 21
37 37 37 37 35 37 38 38 38 38 39 39 36 39 36 29 23 27 25 26 27 25 26 21 22 31 34 28 28 29 28 33 32 32 30 37 37 34 32 27 24 18 20 22 25 21 19
37 37 37 36 36 35 35 38 37 37 37 39 38 38 35 28 27 26 25 25 26 25 24 25 27 21 22 27 24 24 23 33 26 29 29 30 32 30 31 29 19 13 14 20 20 12 16
38 38 37 37 37 35 34 35 37 39 38 37 36 38 35 30 27 27 27 25 26 26 22 23 23 23 26 24 23 24 26 26 22 24 25 24 22 24 25 25 21 12 16 14 12 15 15
43 43 41 39 38 38 37 35 35 36 37 40 35 36 38 35 30 32 31 30 27 27 27 26 25 24 26 23 18 16 15 21 23 16 22 20 13 14 10 9 11 12 10 12 14 12 12
Lifted_Index
3 3 4 4 4 5 6 6 6 7 7 7 7 7 7 8 8 8 8 9 9 9 9 10 11 11 11 10 11 12 13 13 13 12 12 11 10 9 9 8 8 8 8 9 9 10 10
3 3 4 4 4 5 6 6 6 6 7 7 7 7 7 8 8 8 8 9 9 9 10 10 11 11 11 10 11 12 13 13 13 12 12 11 10 10 9 8 8 8 8 8 9 9 9
3 3 3 4 4 5 5 5 6 6 6 6 7 7 7 8 8 8 8 8 9 10 10 11 11 11 10 10 11 12 12 12 12 12 11 11 11 10 9 9 8 8 7 7 8 8 9
3 3 3 4 4 5 5 5 5 6 6 6 6 7 7 7 7 8 8 8 9 10 11 11 11 10 10 10 11 11 11 11 11 11 11 11 11 10 9 8 8 7 6 6 7 8 8
3 3 3 4 4 5 5 5 5 6 6 6 6 6 7 7 7 8 8 8 9 10 10 11 11 10 9 9 10 10 11 10 11 11 11 10 10 9 8 7 6 5 5 5 6 7 8
4 4 4 5 5 6 6 6 6 6 6 6 6 6 6 6 7 8 8 8 8 8 9 10 9 8 8 8 9 10 10 10 10 9 9 9 8 7 6 6 5 4 4 5 6 7 8
6 6 7 7 7 7 7 6 6 6 6 7 7 6 6 6 7 8 8 7 7 7 7 7 7 7 7 8 8 9 9 9 9 8 7 7 6 6 6 6 5 5 5 5 6 7 7
8 8 8 8 8 7 7 7 7 7 7 7 7 7 6 6 7 8 7 7 7 7 6 6 6 6 7 8 7 8 8 8 7 7 6 6 5 5 6 6 6 6 5 5 6 7 7
8 8 8 8 8 8 7 7 7 7 8 8 8 8 7 6 6 7 6 7 8 7 6 5 6 7 7 7 7 7 8 7 6 6 6 5 5 6 6 6 6 6 5 6 6 6 6
8 8 8 8 8 8 8 8 8 8 8 8 8 8 8 7 6 6 6 7 7 7 5 5 6 7 7 7 7 7 8 7 6 5 5 5 5 5 5 6 5 5 5 6 6 6 5
8 8 8 8 8 8 8 8 8 8 8 8 8 8 8 8 7 6 6 6 6 5 4 4 6 7 7 7 6 7 7 6 6 5 5 5 5 5 5 5 5 5 6 6 6 5 5
8 8 8 8 8 8 8 8 8 8 8 8 8 8 8 8 7 7 6 6 5 4 3 4 5 6 6 6 6 6 6 6 6 5 5 5 5 6 6 6 6 6 5 5 5 4 3
8 8 8 8 8 8 8 8 8 8 8 8 7 7 7 7 7 7 6 5 4 3 3 4 4 5 5 5 5 5 5 5 5 5 4 4 5 5 6 6 5 5 4 3 2 2 2
7 8 8 8 8 8 8 8 8 8 8 8 7 7 7 7 7 7 6 5 4 4 4 4 4 5 5 5 5 5 5 5 5 5 4 4 4 5 6 5 5 5 4 3 2 1 1
8 8 8 8 8 8 8 8 8 8 8 7 7 7 6 6 6 6 6 5 4 5 5 5 5 5 5 5 5 5 5 5 5 5 4 4 4 5 6 5 5 5 4 4 3 2 2
9 9 9 8 8 8 8 8 8 8 8 7 7 6 6 6 6 6 6 6 6 6 6 5 5 5 5 5 5 5 6 6 6 5 5 4 4 5 6 6 5 5 5 4 4 2 1
9 9 9 9 9 9 9 9 8 8 8 7 7 6 6 6 6 6 6 6 7 7 6 6 6 6 6 6 6 6 6 6 6 6 5 5 5 5 6 6 5 5 5 4 3 2 2
10 10 11 11 11 11 11 11 10 10 9 8 7 6 6 6 5 5 5 6 6 7 6 6 6 6 6 6 6 6 6 6 6 6 5 5 5 5 5 6 5 5 5 4 3 3 2
13 13 14 14 14 14 14 14 14 13 12 9 7 6 6 6 5 5 5 5 6 6 6 6 6 6 6 5 5 5 6 5 5 5 5 4 4 4 5 5 5 5 4 3 3 3 3
15 16 16 16 16 16 17 16 16 16 14 11 8 7 7 6 6 6 6 6 5 5 5 5 5 5 5 5 5 5 5 5 5 5 4 4 4 4 4 4 4 4 3 3 3 3 2
16 16 16 17 17 17 18 18 18 17 16 12 9 8 8 7 7 7 6 6 6 5 5 5 5 4 4 4 4 4 4 4 4 4 3 3 3 3 3 3 3 3 3 3 3 3 2
17 17 17 17 17 17 18 18 18 18 16 14 12 11 10 9 8 8 7 7 6 6 5 5 4 4 4 3 3 3 4 3 4 3 3 3 2 2 2 2 2 2 3 3 3 2 2
17 17 17 17 17 18 18 18 18 18 17 16 16 15 14 12 11 10 9 8 7 6 6 6 5 5 5 5 4 4 4 3 3 3 3 2 2 1 1 2 2 2 3 2 2 2 2
17 17 17 17 17 17 17 17 17 18 18 18 18 17 16 14 14 13 12 11 10 9 9 8 8 7 7 7 6 5 4 4 3 3 2 2 1 1 1 1 1 2 2 2 2 1 1
16 16 16 16 16 16 16 16 16 16 17 17 17 17 16 15 15 15 15 14 13 13 13 12 11 11 10 9 7 5 3 3 3 2 2 1 1 0 0 0 1 1 2 2 1 1 1
15 15 15 15 15 15 15 15 15 14 14 14 15 15 15 14 14 14 14 14 14 14 14 14 14 13 12 10 8 5 3 2 2 1 1 1 1 0 0 -0 0 1 2 3 2 2 2
14 14 14 13 14 14 14 13 13 13 12 12 12 12 13 13 12 12 12 12 12 13 13 14 13 12 11 10 8 6 4 3 2 1 1 1 1 1 0 -0 1 3 4 4 3 3 4
13 13 13 12 12 13 13 13 13 12 11 11 10 11 11 12 11 11 11 11 11 11 11 11 11 11 10 8 7 7 5 4 3 2 2 3 2 2 2 1 3 6 7 7 7 8 8
12 12 12 12 12 12 12 12 12 12 11 10 10 10 10 11 11 11 11 10 10 10 10 10 10 9 9 8 8 7 6 5 3 3 4 4 4 4 3 3 5 8 9 10 11 11 11